User: anonymous   Login
Location: Newark
(54.6833°N, 25.2833°E)
Time: 12:07:30
(UTC+00:00)
Language:

Courier 1B - Orbit

View from above orbital plane
View from above orbital plane
View from above satellite
View from above satellite

Ground track
Ground track

The orbit data is extracted from the following two-line orbital elements,

1    58U 60013A   21021.20331260  .00000088  00000-0  86837-5 0  9999
2    58  28.3282  69.9258 0165092  72.0434 289.8033 13.46325315968517
Epoch (UTC): 21 January 2021 04:52:46
Eccentricity: 0.0165092
inclination: 28.3282°
perigee height: 962 km
apogee height: 1209 km
right ascension of ascending node: 69.9258°
argument of perigee: 72.0434°
revolutions per day: 13.46325315
mean anomaly at epoch: 289.8033°
orbit number at epoch: 96851

The dashed part of the orbit path shows where the satellite is in the earth's shadow,  

DLR